Location: Emblem
(62.4273°N, 6.4710°E)
Time: 07:22:16
(UTC+02:00)

Transit 2A - Pass Details

Date: 05 March 2024
Orbit: 596 x 956 km, 66.7° (Epoch: 24 April)

Event Time Altitude Azimuth Distance (km) Brightness Sun altitude
Rises 22:26:39 0° 280° (W) 2,874 9.7 -27.7°
Reaches altitude 10° 22:28:54 10° 286° (WNW) 1,993 8.8 -27.9°
Enters shadow 22:33:08 50° 356° (N) 834 6.4 -28.2°
